IK1PCD-5 Weather Reports


time (UTC)temp
F
wind
direction
speed
knots
gust
knots
rain 1hr
in
rain 24hr
in
rain mn
in
humidity
%
barometer
mb
20260507204807 0 0.0 0.0 0.00 0.00 0.00 10 1013.7
20260507204307 0 0.0 0.0 0.00 0.00 0.00 10 1013.7
20260507203802 0 0.0 0.0 0.00 0.00 0.00 10 1013.7
20260507203257 0 0.0 0.0 0.00 0.00 0.00 10 1013.6
20260507202807 0 0.0 0.0 0.00 0.00 0.00 10 1013.7
20260507200257 0 0.0 0.0 0.00 0.00 0.00 10 1013.5
20260507195807 0 0.0 0.0 0.00 0.00 0.00 10 1013.3
20260507195307 0 0.0 0.0 0.00 0.00 0.00 10 1013.3
20260507194807 0 0.0 0.0 0.00 0.00 0.00 10 1013.2
20260507194307 0 0.0 0.0 0.00 0.00 0.00 10 1013.2
20260507193802 0 0.0 0.0 0.00 0.00 0.00 10 1013.2
20260507193257 0 0.0 0.0 0.00 0.00 0.00 10 1013.2
20260507192807 0 0.0 0.0 0.00 0.00 0.00 10 1013.2
20260507192307 0 0.0 0.0 0.00 0.00 0.00 10 1013.2
20260507191807 0 0.0 0.0 0.00 0.00 0.00 10 1013.2
20260507191307 0 0.0 0.0 0.00 0.00 0.00 10 1013.2
20260507190802 0 0.0 0.0 0.00 0.00 0.00 10 1013.1
20260507190257 0 0.0 0.0 0.00 0.00 0.00 10 1013.2
20260507185807 0 0.0 0.0 0.00 0.00 0.00 10 1013.1
20260507185307 0 0.0 0.0 0.00 0.00 0.00 10 1013.1
20260507184807 0 0.0 0.0 0.00 0.00 0.00 10 1013.1
20260507184307 0 0.0 0.0 0.00 0.00 0.00 10 1013.1
20260507183803 0 0.0 0.0 0.00 0.00 0.00 10 1013.1
20260507183257 0 0.0 0.0 0.00 0.00 0.00 10 1013.1
20260507182807 0 0.0 0.0 0.00 0.00 0.00 10 1013.0
20260507182307 0 0.0 0.0 0.00 0.00 0.00 10 1013.2
20260507181807 0 0.0 0.0 0.00 0.00 0.00 10 1013.2
20260507181307 0 0.0 0.0 0.00 0.00 0.00 10 1013.1
20260507180803 0 0.0 0.0 0.00 0.00 0.00 10 1013.1
20260507180258 0 0.0 0.0 0.00 0.00 0.00 10 1013.0
20260507175807 0 0.0 0.0 0.00 0.00 0.00 10 1013.1
20260507175307 0 0.0 0.0 0.00 0.00 0.00 10 1013.1
20260507174807 0 0.0 0.0 0.00 0.00 0.00 10 1013.1
20260507174307 0 0.0 0.0 0.00 0.00 0.00 10 1013.1
20260507173802 0 0.0 0.0 0.00 0.00 0.00 10 1013.1
20260507173258 0 0.0 0.0 0.00 0.00 0.00 10 1013.0
20260507172807 0 0.0 0.0 0.00 0.00 0.00 10 1012.8
20260507172308 0 0.0 0.0 0.00 0.00 0.00 10 1012.8
20260507171807 0 0.0 0.0 0.00 0.00 0.00 10 1012.7
20260507171307 0 0.0 0.0 0.00 0.00 0.00 98 1012.7
20260507170802 0 0.0 0.0 0.00 0.00 0.00 96 1012.7
20260507170257 0 0.0 0.0 0.00 0.00 0.00 95 1012.7
20260507165807 0 0.0 0.0 0.00 0.00 0.00 95 1012.8
20260507165307 0 0.0 0.0 0.00 0.00 0.00 93 1012.8
20260507164807 0 0.0 0.0 0.00 0.00 0.00 94 1012.7
20260507164307 0 0.0 0.0 0.00 0.00 0.00 91 1012.7
20260507163802 0 0.0 0.0 0.00 0.00 0.00 90 1012.7
20260507163257 0 0.0 0.0 0.00 0.00 0.00 87 1012.7
20260507162807 0 0.0 0.0 0.00 0.00 0.00 85 1012.6
20260507160258 0 0.0 0.0 0.00 0.00 0.00 74 1012.7
20260507155807 0 0.0 0.0 0.00 0.00 0.00 78 1012.7
20260507155307 0 0.0 0.0 0.00 0.00 0.00 82 1012.8
20260507154807 0 0.0 0.0 0.00 0.00 0.00 81 1012.7
20260507154306 0 0.0 0.0 0.00 0.00 0.00 82 1012.7
20260507153802 0 0.0 0.0 0.00 0.00 0.00 83 1012.7
20260507153257 0 0.0 0.0 0.00 0.00 0.00 84 1012.7
20260507152807 0 0.0 0.0 0.00 0.00 0.00 87 1012.7
20260507152307 0 0.0 0.0 0.00 0.00 0.00 89 1012.7
20260507151808 0 0.0 0.0 0.00 0.00 0.00 92 1012.7
20260507151307 0 0.0 0.0 0.00 0.00 0.00 87 1012.6
20260507150803 0 0.0 0.0 0.00 0.00 0.00 88 1012.6
20260507150257 0 0.0 0.0 0.00 0.00 0.00 82 1012.6
20260507145807 0 0.0 0.0 0.00 0.00 0.00 87 1012.7
20260507145307 0 0.0 0.0 0.00 0.00 0.00 84 1012.6
20260507144807 0 0.0 0.0 0.00 0.00 0.00 89 1012.7
20260507144307 0 0.0 0.0 0.00 0.00 0.00 89 1012.7
20260507143802 0 0.0 0.0 0.00 0.00 0.00 93 1012.7
20260507143258 0 0.0 0.0 0.00 0.00 0.00 90 1012.7
20260507142807 0 0.0 0.0 0.00 0.00 0.00 85 1012.7
20260507142307 0 0.0 0.0 0.00 0.00 0.00 81 1012.7
20260507141807 0 0.0 0.0 0.00 0.00 0.00 81 1012.6
20260507141307 0 0.0 0.0 0.00 0.00 0.00 75 1012.6
20260507140803 0 0.0 0.0 0.00 0.00 0.00 81 1012.7
20260507140258 0 0.0 0.0 0.00 0.00 0.00 80 1012.7
20260507135807 0 0.0 0.0 0.00 0.00 0.00 81 1012.7
20260507135307 0 0.0 0.0 0.00 0.00 0.00 82 1012.7
20260507134807 0 0.0 0.0 0.00 0.00 0.00 75 1012.7
20260507134307 0 0.0 0.0 0.00 0.00 0.00 79 1012.7
20260507133802 0 0.0 0.0 0.00 0.00 0.00 79 1012.7
20260507133258 0 0.0 0.0 0.00 0.00 0.00 84 1012.7
20260507132807 0 0.0 0.0 0.00 0.00 0.00 73 1012.7
20260507132308 0 0.0 0.0 0.00 0.00 0.00 72 1012.7
20260507131807 0 0.0 0.0 0.00 0.00 0.00 70 1012.7
20260507131307 0 0.0 0.0 0.00 0.00 0.00 69 1012.7
20260507130802 0 0.0 0.0 0.00 0.00 0.00 73 1012.7
20260507130257 0 0.0 0.0 0.00 0.00 0.00 81 1012.7
20260507125807 0 0.0 0.0 0.00 0.00 0.00 73 1012.8
20260507125307 0 0.0 0.0 0.00 0.00 0.00 74 1012.8
20260507124807 0 0.0 0.0 0.00 0.00 0.00 83 1012.7
20260507124307 0 0.0 0.0 0.00 0.00 0.00 86 1012.7
20260507123802 0 0.0 0.0 0.00 0.00 0.00 90 1012.8
20260507123257 0 0.0 0.0 0.00 0.00 0.00 87 1012.8
20260507122807 0 0.0 0.0 0.00 0.00 0.00 90 1012.8
20260507120258 0 0.0 0.0 0.00 0.00 0.00 98 1013.0
20260507115807 0 0.0 0.0 0.00 0.00 0.00 97 1013.0
20260507115307 0 0.0 0.0 0.00 0.00 0.00 91 1013.1
20260507114807 0 0.0 0.0 0.00 0.00 0.00 94 1013.1
20260507114307 0 0.0 0.0 0.00 0.00 0.00 94 1013.1
20260507113802 0 0.0 0.0 0.00 0.00 0.00 94 1013.0
20260507113258 0 0.0 0.0 0.00 0.00 0.00 98 1013.0
20260507112807 0 0.0 0.0 0.00 0.00 0.00 93 1013.1
20260507112307 0 0.0 0.0 0.00 0.00 0.00 99 1013.1
20260507111807 0 0.0 0.0 0.00 0.00 0.00 92 1013.1
20260507111307 0 0.0 0.0 0.00 0.00 0.00 97 1013.1
20260507110802 0 0.0 0.0 0.00 0.00 0.00 10 1013.1
20260507110257 0 0.0 0.0 0.00 0.00 0.00 99 1013.2
20260507105808 0 0.0 0.0 0.00 0.00 0.00 10 1013.2
20260507105307 0 0.0 0.0 0.00 0.00 0.00 10 1013.2
20260507104807 0 0.0 0.0 0.00 0.00 0.00 97 1013.2
20260507104307 0 0.0 0.0 0.00 0.00 0.00 10 1013.2
20260507103802 0 0.0 0.0 0.00 0.00 0.00 10 1013.2
20260507103257 0 0.0 0.0 0.00 0.00 0.00 10 1013.2
20260507102807 0 0.0 0.0 0.00 0.00 0.00 10 1013.2
20260507102307 0 0.0 0.0 0.00 0.00 0.00 10 1013.2
20260507101807 0 0.0 0.0 0.00 0.00 0.00 10 1013.2
20260507101307 0 0.0 0.0 0.00 0.00 0.00 10 1013.2
20260507100802 0 0.0 0.0 0.00 0.00 0.00 10 1013.2
20260507100257 0 0.0 0.0 0.00 0.00 0.00 10 1013.2
20260507095807 0 0.0 0.0 0.00 0.00 0.00 10 1013.2
20260507095307 0 0.0 0.0 0.00 0.00 0.00 10 1013.1
20260507094807 0 0.0 0.0 0.00 0.00 0.00 10 1013.1
20260507094307 0 0.0 0.0 0.00 0.00 0.00 10 1013.1
20260507093802 0 0.0 0.0 0.00 0.00 0.00 10 1013.1
20260507093257 0 0.0 0.0 0.00 0.00 0.00 10 1013.0
20260507092807 0 0.0 0.0 0.00 0.00 0.00 10 1013.1
20260507092307 0 0.0 0.0 0.00 0.00 0.00 10 1013.1
20260507091807 0 0.0 0.0 0.00 0.00 0.00 10 1013.0
20260507091307 0 0.0 0.0 0.00 0.00 0.00 10 1013.0
20260507090802 0 0.0 0.0 0.00 0.00 0.00 10 1012.8
20260507090257 0 0.0 0.0 0.00 0.00 0.00 10 1013.0
20260507085807 0 0.0 0.0 0.00 0.00 0.00 10 1013.1
20260507085307 0 0.0 0.0 0.00 0.00 0.00 10 1013.1
20260507084807 0 0.0 0.0 0.00 0.00 0.00 10 1013.0
20260507084307 0 0.0 0.0 0.00 0.00 0.00 10 1012.8
20260507083802 0 0.0 0.0 0.00 0.00 0.00 10 1012.8
20260507083257 0 0.0 0.0 0.00 0.00 0.00 10 1012.8
20260507082807 0 0.0 0.0 0.00 0.00 0.00 10 1012.8
20260507080257 0 0.0 0.0 0.00 0.00 0.00 99 1012.5
20260507075757 0 0.0 0.0 0.00 0.00 0.00 10 1012.6
20260507075038 0 0.0 0.0 0.00 0.00 0.00 10 1012.5
20260507074533 0 0.0 0.0 0.00 0.00 0.00 10 1012.5
20260507074029 0 0.0 0.0 0.00 0.00 0.00 10 1012.6
20260507073538 0 0.0 0.0 0.00 0.00 0.00 10 1012.6
20260507073038 0 0.0 0.0 0.00 0.00 0.00 10 1012.6
20260507072538 0 0.0 0.0 0.00 0.00 0.00 10 1012.6
20260507072033 0 0.0 0.0 0.00 0.00 0.00 10 1012.5
20260507071533 0 0.0 0.0 0.00 0.00 0.00 10 1012.5
20260507071028 0 0.0 0.0 0.00 0.00 0.00 10 1012.3
20260507070538 0 0.0 0.0 0.00 0.00 0.00 10 1012.3
20260507070038 0 0.0 0.0 0.00 0.00 0.00 10 1012.3
20260507065538 0 0.0 0.0 0.00 0.00 0.00 10 1012.2
20260507065038 0 0.0 0.0 0.00 0.00 0.00 10 1012.2
20260507064533 0 0.0 0.0 0.00 0.00 0.00 10 1012.2
20260507064028 0 0.0 0.0 0.00 0.00 0.00 10 1012.2
20260507063538 0 0.0 0.0 0.00 0.00 0.00 10 1012.2
20260507063038 0 0.0 0.0 0.00 0.00 0.00 10 1012.2
20260507062538 0 0.0 0.0 0.00 0.00 0.00 10 1012.1
20260507062038 0 0.0 0.0 0.00 0.00 0.00 10 1012.1
20260507061533 0 0.0 0.0 0.00 0.00 0.00 10 1012.1
20260507061029 0 0.0 0.0 0.00 0.00 0.00 10 1012.0
20260507060538 0 0.0 0.0 0.00 0.00 0.00 10 1012.0
20260507060038 0 0.0 0.0 0.00 0.00 0.00 10 1012.0
20260507055538 0 0.0 0.0 0.00 0.00 0.00 10 1012.0
20260507055038 0 0.0 0.0 0.00 0.00 0.00 10 1011.8
20260507054533 0 0.0 0.0 0.00 0.00 0.00 10 1011.7
20260507054028 0 0.0 0.0 0.00 0.00 0.00 10 1011.7
20260507053538 0 0.0 0.0 0.00 0.00 0.00 10 1011.7
20260507053038 0 0.0 0.0 0.00 0.00 0.00 10 1011.7
20260507052538 0 0.0 0.0 0.00 0.00 0.00 10 1011.6
20260507052038 0 0.0 0.0 0.00 0.00 0.00 10 1011.5
20260507051533 0 0.0 0.0 0.00 0.00 0.00 10 1011.3
20260507051028 0 0.0 0.0 0.00 0.00 0.00 10 1011.5
20260507050538 0 0.0 0.0 0.00 0.00 0.00 10 1011.3
20260507050038 0 0.0 0.0 0.00 0.00 0.00 10 1011.3
20260507045538 0 0.0 0.0 0.00 0.00 0.00 10 1011.2
20260507045038 0 0.0 0.0 0.00 0.00 0.00 10 1011.2
20260507044533 0 0.0 0.0 0.00 0.00 0.00 10 1011.2
20260507044028 0 0.0 0.0 0.00 0.00 0.00 10 1011.2
20260507043538 0 0.0 0.0 0.00 0.00 0.00 10 1011.2
20260507043038 0 0.0 0.0 0.00 0.00 0.00 10 1011.2
20260507042538 0 0.0 0.0 0.00 0.00 0.00 10 1011.1
20260507040538 0 0.0 0.0 0.00 0.00 0.00 10 1011.0
20260507040038 0 0.0 0.0 0.00 0.00 0.00 10 1011.0
20260507035539 0 0.0 0.0 0.00 0.00 0.00 10 1011.1
20260507035038 0 0.0 0.0 0.00 0.00 0.00 10 1011.0
20260507034533 0 0.0 0.0 0.00 0.00 0.00 10 1010.8
20260507034028 0 0.0 0.0 0.00 0.00 0.00 10 1010.8
20260507033538 0 0.0 0.0 0.00 0.00 0.00 10 1011.0
20260507033038 0 0.0 0.0 0.00 0.00 0.00 10 1010.8
20260507032538 0 0.0 0.0 0.00 0.00 0.00 10 1010.8
20260507032038 0 0.0 0.0 0.00 0.00 0.00 10 1010.8
20260507031534 0 0.0 0.0 0.00 0.00 0.00 10 1010.8
20260507031029 0 0.0 0.0 0.00 0.00 0.00 10 1010.8
20260507030538 0 0.0 0.0 0.00 0.00 0.00 10 1010.8
20260507030038 0 0.0 0.0 0.00 0.00 0.00 10 1011.0
20260507025538 0 0.0 0.0 0.00 0.00 0.00 10 1010.8
20260507025038 0 0.0 0.0 0.00 0.00 0.00 10 1010.8
20260507024533 0 0.0 0.0 0.00 0.00 0.00 10 1010.8
20260507024028 0 0.0 0.0 0.00 0.00 0.00 10 1010.8
20260507023539 0 0.0 0.0 0.00 0.00 0.00 10 1010.8
20260507023038 0 0.0 0.0 0.00 0.00 0.00 10 1010.7
20260507022538 0 0.0 0.0 0.00 0.00 0.00 10 1010.7
20260507022038 0 0.0 0.0 0.00 0.00 0.00 10 1010.8
20260507021533 0 0.0 0.0 0.00 0.00 0.00 10 1011.0
20260507021028 0 0.0 0.0 0.00 0.00 0.00 10 1011.0
20260507020539 0 0.0 0.0 0.00 0.00 0.00 10 1010.8
20260507020038 0 0.0 0.0 0.00 0.00 0.00 10 1010.8
20260507015538 0 0.0 0.0 0.00 0.00 0.00 10 1011.1
20260507015038 0 0.0 0.0 0.00 0.00 0.00 10 1011.0
20260507014533 0 0.0 0.0 0.00 0.00 0.00 10 1011.0
20260507014028 0 0.0 0.0 0.00 0.00 0.00 10 1011.0
20260507013538 0 0.0 0.0 0.00 0.00 0.00 10 1010.8
20260507013038 0 0.0 0.0 0.00 0.00 0.00 10 1010.8
20260507012538 0 0.0 0.0 0.00 0.00 0.00 10 1010.8
20260507012038 0 0.0 0.0 0.00 0.00 0.00 10 1011.0
20260507011533 0 0.0 0.0 0.00 0.00 0.00 10 1011.0
20260507011028 0 0.0 0.0 0.00 0.00 0.00 10 1010.8
20260507010539 0 0.0 0.0 0.00 0.00 0.00 10 1010.8
20260507010039 0 0.0 0.0 0.00 0.00 0.00 10 1010.8
20260507005538 0 0.0 0.0 0.00 0.00 0.00 10 1010.8
20260507005038 0 0.0 0.0 0.00 0.00 0.00 10 1011.0
20260507004533 0 0.0 0.0 0.00 0.00 0.00 10 1011.0
20260507004028 0 0.0 0.0 0.00 0.00 0.00 10 1010.8
20260507003538 0 0.0 0.0 0.00 0.00 0.00 10 1011.0
20260507003038 0 0.0 0.0 0.00 0.00 0.00 10 1010.8
20260507002538 0 0.0 0.0 0.00 0.00 0.00 10 1010.8
20260507000538 0 0.0 0.0 0.00 0.00 0.00 10 1010.8
20260507000037 0 0.0 0.0 0.00 0.00 0.00 10 1010.7
20260506235538 0 0.0 0.0 0.00 0.00 0.00 10 1010.7
20260506235038 0 0.0 0.0 0.00 0.00 0.00 10 1010.8
20260506234533 0 0.0 0.0 0.00 0.00 0.00 10 1011.0
20260506234028 0 0.0 0.0 0.00 0.00 0.00 10 1011.0
20260506233538 0 0.0 0.0 0.00 0.00 0.00 10 1011.1
20260506233037 0 0.0 0.0 0.00 0.00 0.00 10 1011.1
20260506232538 0 0.0 0.0 0.00 0.00 0.00 10 1011.0
20260506232038 0 0.0 0.0 0.00 0.00 0.00 10 1011.0
20260506231533 0 0.0 0.0 0.00 0.00 0.00 10 1011.1
20260506231028 0 0.0 0.0 0.00 0.00 0.00 10 1011.1
20260506230538 0 0.0 0.0 0.00 0.00 0.00 10 1011.1
20260506230038 0 0.0 0.0 0.00 0.00 0.00 10 1011.1
20260506225538 0 0.0 0.0 0.00 0.00 0.00 10 1011.0
20260506225038 0 0.0 0.0 0.00 0.00 0.00 10 1011.0
20260506224533 0 0.0 0.0 0.00 0.00 0.00 10 1010.8
20260506224028 0 0.0 0.0 0.00 0.00 0.00 10 1011.1
20260506223538 0 0.0 0.0 0.00 0.00 0.00 10 1011.1
20260506223037 0 0.0 0.0 0.00 0.00 0.00 10 1011.0
20260506222538 0 0.0 0.0 0.00 0.00 0.00 10 1011.0
20260506222038 0 0.0 0.0 0.00 0.00 0.00 10 1011.0
20260506221533 0 0.0 0.0 0.00 0.00 0.00 10 1010.8
20260506221028 0 0.0 0.0 0.00 0.00 0.00 10 1010.8
20260506220537 0 0.0 0.0 0.00 0.00 0.00 10 1011.0
20260506220038 0 0.0 0.0 0.00 0.00 0.00 10 1011.0
20260506215538 0 0.0 0.0 0.00 0.00 0.00 10 1011.1
20260506215038 0 0.0 0.0 0.00 0.00 0.00 10 1011.0
20260506214533 0 0.0 0.0 0.00 0.00 0.00 10 1011.1
20260506214028 0 0.0 0.0 0.00 0.00 0.00 10 1011.1
20260506213538 0 0.0 0.0 0.00 0.00 0.00 10 1011.1
20260506213038 0 0.0 0.0 0.00 0.00 0.00 10 1011.2
20260506212538 0 0.0 0.0 0.00 0.00 0.00 10 1011.1
20260506212038 0 0.0 0.0 0.00 0.00 0.00 10 1011.0
20260506211533 0 0.0 0.0 0.00 0.00 0.00 95 1011.1
20260506211028 0 0.0 0.0 0.00 0.00 0.00 10 1011.1
20260506210538 0 0.0 0.0 0.00 0.00 0.00 10 1011.1
20260506210038 0 0.0 0.0 0.00 0.00 0.00 10 1011.2
20260506205538 0 0.0 0.0 0.00 0.00 0.00 10 1011.1